Time,TemperatureF,DewpointF,PressureIn,WindDirection,WindDirectionDegrees,WindSpeedMPH,WindSpeedGustMPH,Humidity,HourlyPrecipIn,Conditions,Clouds,dailyrainin,SoftwareType,DateUTC
2012-04-07 00:12:00,41.5,15.0,30.12,NNE,23,3.0,3.0,34,0.00,,,0.00,weatherlink.com 1.10,2012-04-07 07:12:00,
2012-04-07 00:27:00,42.3,13.0,30.11,NNE,32,2.0,3.0,31,0.00,,,0.00,weatherlink.com 1.10,2012-04-07 07:27:00,
2012-04-07 00:43:00,42.6,13.0,30.11,NNE,23,4.0,4.0,30,0.00,,,0.00,weatherlink.com 1.10,2012-04-07 07:43:00,
2012-04-07 01:13:00,41.8,12.0,30.11,NNE,22,3.0,4.0,30,0.00,,,0.00,weatherlink.com 1.10,2012-04-07 08:13:00,
2012-04-07 01:28:00,42.3,11.0,30.11,NNE,26,3.0,4.0,28,0.00,,,0.00,weatherlink.com 1.10,2012-04-07 08:28:00,
2012-04-07 01:58:00,40.4,13.0,30.11,NNE,19,2.0,3.0,32,0.00,,,0.00,weatherlink.com 1.10,2012-04-07 08:58:00,
2012-04-07 02:13:00,40.3,10.0,30.11,NNE,22,3.0,4.0,29,0.00,,,0.00,weatherlink.com 1.10,2012-04-07 09:13:00,
2012-04-07 02:43:00,40.2,12.0,30.11,NNE,20,3.0,4.0,31,0.00,,,0.00,weatherlink.com 1.10,2012-04-07 09:43:00,
2012-04-07 02:58:00,39.5,12.0,30.11,NNE,20,3.0,3.0,33,0.00,,,0.00,weatherlink.com 1.10,2012-04-07 09:58:00,
2012-04-07 03:13:00,40.4,7.0,30.11,NNE,23,4.0,4.0,25,0.00,,,0.00,weatherlink.com 1.10,2012-04-07 10:13:00,
2012-04-07 03:28:00,42.3,8.0,30.11,North,10,3.0,3.0,24,0.00,,,0.00,weatherlink.com 1.10,2012-04-07 10:28:00,
2012-04-07 03:43:00,40.4,9.0,30.10,NNE,19,3.0,3.0,27,0.00,,,0.00,weatherlink.com 1.10,2012-04-07 10:43:00,
2012-04-07 03:58:00,41.0,4.0,30.11,NNE,24,4.0,4.0,21,0.00,,,0.00,weatherlink.com 1.10,2012-04-07 10:58:00,
2012-04-07 04:13:00,44.1,4.0,30.10,NNE,22,3.0,4.0,19,0.00,,,0.00,weatherlink.com 1.10,2012-04-07 11:13:00,
2012-04-07 04:28:00,43.6,1.0,30.10,NNE,15,2.0,3.0,17,0.00,,,0.00,weatherlink.com 1.10,2012-04-07 11:28:00,
2012-04-07 04:43:00,44.0,-1.0,30.10,NNE,13,3.0,4.0,15,0.00,,,0.00,weatherlink.com 1.10,2012-04-07 11:43:00,
2012-04-07 05:13:00,44.8,-2.0,30.10,NNE,20,4.0,4.0,14,0.00,,,0.00,weatherlink.com 1.10,2012-04-07 12:13:00,
2012-04-07 05:28:00,46.3,-2.0,30.10,North,357,3.0,4.0,13,0.00,,,0.00,weatherlink.com 1.10,2012-04-07 12:28:00,
2012-04-07 05:58:00,45.1,-5.0,30.10,NNE,22,3.0,4.0,12,0.00,,,0.00,weatherlink.com 1.10,2012-04-07 12:58:00,
2012-04-07 06:14:00,46.0,-4.0,30.10,North,5,2.0,4.0,12,0.00,,,0.00,weatherlink.com 1.10,2012-04-07 13:14:00,
2012-04-07 06:29:00,46.9,-7.0,30.10,NNE,23,4.0,5.0,10,0.00,,,0.00,weatherlink.com 1.10,2012-04-07 13:29:00,
2012-04-07 06:44:00,45.4,-2.0,30.10,NNE,25,2.0,3.0,14,0.00,,,0.00,weatherlink.com 1.10,2012-04-07 13:44:00,
2012-04-07 06:59:00,45.6,-5.0,30.10,NNE,18,4.0,4.0,12,0.00,,,0.00,weatherlink.com 1.10,2012-04-07 13:59:00,
2012-04-07 07:14:00,47.1,-5.0,30.10,NNE,22,3.0,4.0,11,0.00,,,0.00,weatherlink.com 1.10,2012-04-07 14:14:00,
2012-04-07 07:29:00,49.3,-3.0,30.11,NNE,14,3.0,5.0,11,0.00,,,0.00,weatherlink.com 1.10,2012-04-07 14:29:00,
2012-04-07 07:44:00,50.3,1.0,30.11,North,6,1.0,5.0,13,0.00,,,0.00,weatherlink.com 1.10,2012-04-07 14:44:00,
2012-04-07 07:59:00,53.2,0.0,30.12,North,6,0.0,3.0,11,0.00,,,0.00,weatherlink.com 1.10,2012-04-07 14:59:00,
2012-04-07 08:14:00,51.4,14.0,30.12,NNE,29,0.0,2.0,22,0.00,,,0.00,weatherlink.com 1.10,2012-04-07 15:14:00,
2012-04-07 08:29:00,53.9,10.0,30.12,North,354,2.0,2.0,17,0.00,,,0.00,weatherlink.com 1.10,2012-04-07 15:29:00,
2012-04-07 08:44:00,55.3,22.0,30.12,NNE,19,0.0,1.0,27,0.00,,,0.00,weatherlink.com 1.10,2012-04-07 15:44:00,
2012-04-07 08:59:00,55.1,5.0,30.12,North,4,0.0,1.0,13,0.00,,,0.00,weatherlink.com 1.10,2012-04-07 15:59:00,
2012-04-07 09:14:00,57.0,10.0,30.11,SSW,208,0.0,2.0,15,0.00,,,0.00,weatherlink.com 1.10,2012-04-07 16:14:00,
2012-04-07 09:29:00,58.8,2.0,30.11,SE,129,0.0,4.0,10,0.00,,,0.00,weatherlink.com 1.10,2012-04-07 16:29:00,
2012-04-07 09:45:00,60.0,-2.0,30.11,East,86,0.0,6.0,8,0.00,,,0.00,weatherlink.com 1.10,2012-04-07 16:45:00,
2012-04-07 10:00:00,61.0,-4.0,30.11,ESE,120,0.0,5.0,7,0.00,,,0.00,weatherlink.com 1.10,2012-04-07 17:00:00,
2012-04-07 10:15:00,61.4,6.0,30.12,NE,43,2.0,5.0,11,0.00,,,0.00,weatherlink.com 1.10,2012-04-07 17:15:00,
2012-04-07 10:30:00,61.7,6.0,30.12,ESE,121,0.0,6.0,11,0.00,,,0.00,weatherlink.com 1.10,2012-04-07 17:30:00,
2012-04-07 10:45:00,63.0,-2.0,30.12,ENE,70,1.0,6.0,7,0.00,,,0.00,weatherlink.com 1.10,2012-04-07 17:45:00,
2012-04-07 11:00:00,63.5,1.0,30.12,East,95,2.0,5.0,8,0.00,,,0.00,weatherlink.com 1.10,2012-04-07 18:00:00,
2012-04-07 11:15:00,64.1,-5.0,30.12,ENE,74,3.0,6.0,6,0.00,,,0.00,weatherlink.com 1.10,2012-04-07 18:15:00,
2012-04-07 11:30:00,66.2,10.0,30.12,SW,221,2.0,4.0,11,0.00,,,0.00,weatherlink.com 1.10,2012-04-07 18:30:00,
2012-04-07 11:45:00,67.3,6.0,30.12,SSW,197,2.0,6.0,9,0.00,,,0.00,weatherlink.com 1.10,2012-04-07 18:45:00,
2012-04-07 12:00:00,67.4,4.0,30.11,SE,139,0.0,5.0,8,0.00,,,0.00,weatherlink.com 1.10,2012-04-07 19:00:00,
2012-04-07 12:16:00,68.4,10.0,30.11,SE,125,2.0,6.0,10,0.00,,,0.00,weatherlink.com 1.10,2012-04-07 19:16:00,
2012-04-07 12:31:00,69.2,5.0,30.10,ESE,105,1.0,6.0,8,0.00,,,0.00,weatherlink.com 1.10,2012-04-07 19:31:00,
2012-04-07 13:01:00,68.6,10.0,30.10,East,90,1.0,6.0,10,0.00,,,0.00,weatherlink.com 1.10,2012-04-07 20:01:00,
2012-04-07 13:31:00,69.6,3.0,30.09,ENE,72,0.0,8.0,7,0.00,,,0.00,weatherlink.com 1.10,2012-04-07 20:31:00,
2012-04-07 13:46:00,70.7,9.0,30.09,NNE,22,1.0,6.0,9,0.00,,,0.00,weatherlink.com 1.10,2012-04-07 20:46:00,
2012-04-07 14:01:00,71.1,7.0,30.09,SW,221,2.0,5.0,8,0.00,,,0.00,weatherlink.com 1.10,2012-04-07 21:01:00,
2012-04-07 14:16:00,71.0,4.0,30.08,SSE,165,2.0,10.0,7,0.00,,,0.00,weatherlink.com 1.10,2012-04-07 21:16:00,
2012-04-07 14:31:00,70.9,4.0,30.07,SSE,149,1.0,6.0,7,0.00,,,0.00,weatherlink.com 1.10,2012-04-07 21:31:00,
2012-04-07 14:46:00,70.8,3.0,30.07,SE,142,1.0,8.0,7,0.00,,,0.00,weatherlink.com 1.10,2012-04-07 21:46:00,
2012-04-07 15:01:00,69.4,8.0,30.06,SW,214,0.0,9.0,9,0.00,,,0.00,weatherlink.com 1.10,2012-04-07 22:01:00,
2012-04-07 15:16:00,70.6,3.0,30.06,SW,219,1.0,9.0,7,0.00,,,0.00,weatherlink.com 1.10,2012-04-07 22:16:00,
2012-04-07 15:32:00,70.7,3.0,30.06,WSW,253,1.0,9.0,7,0.00,,,0.00,weatherlink.com 1.10,2012-04-07 22:32:00,
2012-04-07 16:02:00,71.0,9.0,30.06,North,349,0.0,5.0,9,0.00,,,0.00,weatherlink.com 1.10,2012-04-07 23:02:00,
2012-04-07 16:17:00,70.9,4.0,30.06,SW,214,4.0,7.0,7,0.00,,,0.00,weatherlink.com 1.10,2012-04-07 23:17:00,
2012-04-07 16:32:00,70.6,-4.0,30.05,SSE,150,0.0,6.0,5,0.00,,,0.00,weatherlink.com 1.10,2012-04-07 23:32:00,
2012-04-07 16:47:00,69.8,6.0,30.06,SSW,211,2.0,10.0,8,0.00,,,0.00,weatherlink.com 1.10,2012-04-07 23:47:00,
2012-04-07 17:02:00,68.5,5.0,30.06,SW,228,0.0,6.0,8,0.00,,,0.00,weatherlink.com 1.10,2012-04-08 00:02:00,
2012-04-07 17:17:00,68.1,-2.0,30.06,ESE,120,0.0,3.0,6,0.00,,,0.00,weatherlink.com 1.10,2012-04-08 00:17:00,
2012-04-07 17:32:00,67.8,1.0,30.06,SSW,208,2.0,3.0,7,0.00,,,0.00,weatherlink.com 1.10,2012-04-08 00:32:00,
2012-04-07 17:47:00,66.1,3.0,30.06,SSW,208,0.0,3.0,8,0.00,,,0.00,weatherlink.com 1.10,2012-04-08 00:47:00,
2012-04-07 18:02:00,65.4,-1.0,30.06,ENE,61,0.0,1.0,7,0.00,,,0.00,weatherlink.com 1.10,2012-04-08 01:02:00,
2012-04-07 18:17:00,64.5,4.0,30.06,ENE,61,0.0,1.0,9,0.00,,,0.00,weatherlink.com 1.10,2012-04-08 01:17:00,
2012-04-07 18:32:00,63.9,10.0,30.06,ENE,65,0.0,0.0,12,0.00,,,0.00,weatherlink.com 1.10,2012-04-08 01:32:00,
2012-04-07 18:47:00,61.3,11.0,30.06,West,273,0.0,1.0,14,0.00,,,0.00,weatherlink.com 1.10,2012-04-08 01:47:00,
2012-04-07 19:02:00,58.6,20.0,30.07,North,8,0.0,5.0,22,0.00,,,0.00,weatherlink.com 1.10,2012-04-08 02:02:00,
2012-04-07 19:17:00,56.4,20.0,30.07,North,9,0.0,3.0,24,0.00,,,0.00,weatherlink.com 1.10,2012-04-08 02:17:00,
2012-04-07 19:33:00,53.9,20.0,30.07,NNE,23,1.0,2.0,27,0.00,,,0.00,weatherlink.com 1.10,2012-04-08 02:33:00,
2012-04-07 19:48:00,51.0,20.0,30.07,NNE,23,1.0,3.0,29,0.00,,,0.00,weatherlink.com 1.10,2012-04-08 02:48:00,
2012-04-07 20:03:00,52.0,16.0,30.08,North,11,3.0,4.0,24,0.00,,,0.00,weatherlink.com 1.10,2012-04-08 03:03:00,
2012-04-07 20:18:00,52.6,13.0,30.08,NNE,13,2.0,4.0,21,0.00,,,0.00,weatherlink.com 1.10,2012-04-08 03:18:00,
2012-04-07 20:33:00,50.7,14.0,30.09,North,11,1.0,2.0,23,0.00,,,0.00,weatherlink.com 1.10,2012-04-08 03:33:00,
2012-04-07 20:48:00,51.4,14.0,30.09,NNE,16,2.0,2.0,22,0.00,,,0.00,weatherlink.com 1.10,2012-04-08 03:48:00,
2012-04-07 21:03:00,49.4,14.0,30.10,North,6,1.0,2.0,24,0.00,,,0.00,weatherlink.com 1.10,2012-04-08 04:03:00,
2012-04-07 21:18:00,48.4,14.0,30.10,NNE,20,1.0,2.0,25,0.00,,,0.00,weatherlink.com 1.10,2012-04-08 04:18:00,
2012-04-07 21:33:00,47.0,14.0,30.10,NNE,27,1.0,2.0,26,0.00,,,0.00,weatherlink.com 1.10,2012-04-08 04:33:00,
2012-04-07 21:48:00,46.5,16.0,30.10,NE,49,0.0,2.0,29,0.00,,,0.00,weatherlink.com 1.10,2012-04-08 04:48:00,
2012-04-07 22:03:00,46.3,14.0,30.10,NNE,31,1.0,2.0,27,0.00,,,0.00,weatherlink.com 1.10,2012-04-08 05:03:00,
2012-04-07 22:18:00,49.4,10.0,30.09,NNE,23,3.0,5.0,20,0.00,,,0.00,weatherlink.com 1.10,2012-04-08 05:18:00,
2012-04-07 22:33:00,51.7,10.0,30.09,NNE,23,3.0,5.0,19,0.00,,,0.00,weatherlink.com 1.10,2012-04-08 05:33:00,
2012-04-07 22:50:00,50.7,11.0,30.09,NNE,12,3.0,4.0,20,0.00,,,0.00,weatherlink.com 1.10,2012-04-08 05:50:00,
2012-04-07 23:03:00,50.3,12.0,30.08,NNE,14,2.0,3.0,21,0.00,,,0.00,weatherlink.com 1.10,2012-04-08 06:03:00,
2012-04-07 23:18:00,49.0,10.0,30.08,NNE,15,2.0,3.0,21,0.00,,,0.00,weatherlink.com 1.10,2012-04-08 06:18:00,